Regional Weather Roundup
Issued by NWS Pendleton, OR

Home | Current Version | Previous Version | Text Only | Print | Product List | Glossary On
Versions: 1 2 3 4 5 6 7 8 9 10 11 12 13 14 15 16 17 18 19 20 21 22 23 24 25 26 27 28 29 30 31 32 33 34 35 36 37 38 39 40 41 42 43 44 45 46 47 48 49 50
000
ASUS46 KPDT 022225
RWRPDT
PENDLETON REGIONAL WEATHER ROUNDUP
NATIONAL WEATHER SERVICE PENDLETON OREGON
300 PM PDT SUN AUG 2 2015

NOTE: FAIR INDICATES FEW OR NO CLOUDS BELOW 12,000 FEET WITH NO
SIGNIFICANT WEATHER AND/OR OBSTRUCTIONS TO VISIBILITY.

# INDICATES UNOFFICIAL STATION AND DATA

WAZ520-022310-
EAST SLOPES OF WASHINGTON CASCADES

CITY            SKY/WX      TMP DP  RH  WIND    PRES   REMARKS
#BULLFROG 2SW   N/A         86  40  20  N7      27.51F
#BUMPING DAM    N/A         85  N/A N/A S7      N/A
#CLE ELUM LAKE  N/A         84  44  25  CALM    29.74S
#CLIFFDEL 2NW   N/A         92  27  10  W7      N/A    HX 88
#NELSON         N/A         88  42  20  CALM    29.78S
#NELSON 3SW     N/A         87  38  18  CALM    29.94F
#RONALD 2NW     N/A         86  44  23  W1      29.84S
#TROUT LAKE 1NE N/A         83  55  38  CALM    29.78S
$$

WAZ521-022310-
SIMCOE HIGHLANDS

CITY            SKY/WX      TMP DP  RH  WIND    PRES   REMARKS
#BICKLETON HS   N/A         93  20   7  SW3     N/A    HX 88
#CENTERVILLE 4W N/A         90  46  22  CALM    29.63F HX 87
#CENTERVILLE 1SWN/A         92  51  25  W9      29.71F HX 89
#GOLDENDALE     N/A         94  36  13  W7      N/A    HX 89
#GOLDENDALE 1NE N/A         94  27   9  SW3     N/A    HX 89
#GOLDENDALE 5WNWN/A         92  52  26  W10     29.71F HX 89
#GOODNOE HILLS  N/A         98  37  12  W12     N/A    HX 93
#LYLE 6NE       N/A         81  52  37  SW6     29.72F
$$

WAZ026-022310-
KITTITAS VALLEY

CITY            SKY/WX      TMP DP  RH  WIND    PRES   REMARKS
ELLENSBURG AP   PTCLDY      101 22   6  NW7     29.85F HX 95
YTC-OPS AREA    N/A         93  25   9  N8      29.92F HX 88
#ELLENSBURG 3NE N/A         96  31  10  CALM    29.84F HX 91
#KITTITAS 3S    N/A         91  59  34  CALM    29.72F HX 90
#THORP 6N       N/A         92  32  12  W20G26  29.74F HX 88
$$

WAZ027-022310-
YAKIMA VALLEY

CITY            SKY/WX      TMP DP  RH  WIND    PRES   REMARKS
SUNNYSIDE AP    PTCLDY      97  42  15  CALM    29.78F HX 93
YAKIMA AIRPORT  PTCLDY      102 39  12  VRB7    29.80F HX 97
#DONALD 2NE     N/A         103 21   5  SE1     28.65F HX 97
#GRANDVIEW      N/A         96  39  14  CALM    29.74F HX 91
#MABTON         N/A         95  57  28  N2      29.76F HX 94
#MOXEE 2E       N/A         96   3   3  SE3     29.68F HX 91
#NACHES 2SW     N/A         96  47  19  E2      29.88S HX 92
#OUTLOOK DOT    N/A         N/A N/A N/A E1      N/A
#SELAH 8E       N/A         100 25   7  S6      N/A    HX 94
#TERRACE HTS    N/A         98  37  12  SW5     29.68F HX 93
#WAPATO 4NE     N/A         104 21   5  SE1     28.64F HX 97
#WEST VALLEY    N/A         98  39  13  CALM    29.70F HX 93
#W YAKIMA       N/A         98  37  12  E2      29.71F HX 93
#WILEY CITY 3W  N/A         101  6   3  CALM    29.79F HX 95
$$

WAZ028-022310-
LOWER COLUMBIA BASIN...WASHINGTON

CITY            SKY/WX      TMP DP  RH  WIND    PRES   REMARKS
PASCO           PTCLDY      101 34  10  CALM    29.77F HX 96
RICHLAND AWOS   PTCLDY      99  37  12  NE5     29.77F HX 94
#BASIN CITY 5SW N/A         91  65  42  CALM    29.78F HX 93
#BENTON CITY    N/A         98  44  16  NE3     29.63F HX 94
#CONNELL 5N     N/A         99  39  13  W3      29.73F HX 94
#ELTOPIA 6NW    N/A         99  56  24  CALM    28.77F HX 98
#KAHLOTUS       N/A         97  34  11  N7      29.73F HX 92
#KENNEWICK      N/A         86  40  20  N7      27.51F
#KENNEWICK 3S   N/A         97  43  16  CALM    29.73F HX 93
#PASCO-BROADMOORN/A         100 34  10  E3      29.62F HX 95
#PATERSON       N/A         94  36  13  S2      29.72F HX 89
#PROSSER        N/A         99  35  11  N1      29.71F HX 94
#SAGEMOOR 2W    N/A         98  42  15  CALM    29.60F HX 94
#WEST PASCO     N/A         102 50  18  NE5     29.74F HX 99
$$

WAZ029-022310-
FOOTHILLS OF THE BLUES...WASHINGTON

CITY            SKY/WX      TMP DP  RH  WIND    PRES   REMARKS
WALLA WALLA AP  SUNNY       100 31   9  NW6     29.81F HX 95
#LOWDEN 2SE     N/A         97  52  22  W8      29.72F HX 94
#PLEASANT VIEW 1N/A         98  27   8  W3      29.75F HX 93
#PRESCOTT       N/A         102 32   9  CALM    29.71F HX 96
#WHITMAN COLLEGEN/A         98  40  14  S1      29.76F HX 93
#WALLA WALLA U  N/A         99  41  14  SW1     29.72F HX 95
#WHITMAN MISSIONN/A         99  48  18  CALM    29.73F HX 96
$$

WAZ030-022310-
BLUE MOUNTAINS...WASHINGTON

CITY            SKY/WX      TMP DP  RH  WIND    PRES   REMARKS
$$

ORZ009-041-WAZ024-022310-
COLUMBIA RIVER GORGE

CITY            SKY/WX      TMP DP  RH  WIND    PRES   REMARKS
HOOD RIVER AP   PTCLDY      81  52  37  N3      29.84F
THE DALLES AP   MOCLDY      87  49  27  N23G30  29.77F
#ARLINGTON AIRPON/A         96  39  14  NE1     N/A    HX 91
#MOSIER 1S      N/A         85  38  19  W6      29.84F
#MURDOCK        N/A         84  55  37  NW20G32 29.76F

$$

ORZ510-022310-
NORTH CENTRAL OREGON

CITY            SKY/WX      TMP DP  RH  WIND    PRES   REMARKS
#CHENOWITH 1W   N/A         81  46  29  W32     N/A
#DUFUR 9E       N/A         85  44  24  NW15    29.77F
#GRASS VALLEY 1SN/A         95  34  12  N9      29.76F HX 90
#MAUPIN SCHOOL  N/A         99  30   9  N3      29.80F HX 94
#MORO SCHOOL    N/A         90  48  24  NW10    29.87F HX 87
#TYGH VALLEY 2NEN/A         100 36  11  N7      29.71F HX 95
#WAPANITIA AIRPON/A         97  34  11  CALM    29.73F HX 92
#WASCO AIRPORT  N/A         96  N/A N/A W12     N/A
#WASCO 5NE      N/A         97  48  19  W2      29.72F HX 94
$$

ORZ511-022310-
CENTRAL OREGON

CITY            SKY/WX      TMP DP  RH  WIND    PRES   REMARKS
BEND AIRPORT    MOCLDY      90  19   7  NW9     29.97F HX 86
MADRAS AIRPORT  PTCLDY      95  27   9  N6      29.92F HX 90
PRINEVILLE AP   PTCLDY      95  12   5  NW15    29.93F HX 90
REDMOND AIRPORT MOCLDY      93  20   7  N12     29.94F HX 88
#BEND 1SW       N/A         88  31  13  E2      N/A
#BEND-AWBREY    N/A         88  27  11  CALM    29.73F
#BEND-KIM LN    N/A         90  31  12  NW1     29.95F HX 86
#CULVER         N/A         93  31  11  NE3     29.88F HX 88
#LAKE BILLY CHINN/A         94  13   5  N5      29.92F HX 89
#POWELL BUTTE   N/A         92  36  14  NE5     29.60F HX 88
#PRINEVILLE 3N  N/A         87  45  23  N12     29.69F
#WARM SPRINGS   N/A         100 38  12  W2      29.80F HX 95

$$


ORZ509-022310-
EAST SLOPES OF OREGON CASCADES

CITY            SKY/WX      TMP DP  RH  WIND    PRES   REMARKS
#CAMP SHERMAN   N/A         94  34  12  E1      29.75S HX 89
#LA PINE 4NW    N/A         88  46  23  N5      29.79F
#SISTERS AIRPOR N/A         93  33  12  CALM    30.17S HX 89
#SISTERS 1NW    N/A         94  27   9  S5      N/A    HX 89
#SISTERS 3N     N/A         92  36  14  S2      30.16S HX 88
#SUNRIVER       N/A         89  37  16  E1      29.65F

$$

ORZ044-022310-
LOWER COLUMBIA BASIN...OREGON

CITY            SKY/WX      TMP DP  RH  WIND    PRES   REMARKS
HERMISTON       PTCLDY      96  37  13  W5      29.78F HX 91
#BOARDMAN 8SW   N/A         95  42  16  W3      29.72F HX 91
#ECHO 8SW       N/A         99  43  15  CALM    29.79F HX 95
#IONE SCHOOL    N/A         97  31  10  W6      29.77F HX 92
#IRRIGON 4NW    N/A         91  47  22  SW5     N/A    HX 88
#UMATILLA       N/A         99  46  17  W2      29.68F HX 95
$$

ORZ507-022310-
NORTHERN FOOTHILLS OF THE BLUES

CITY            SKY/WX      TMP DP  RH  WIND    PRES   REMARKS
PENDLETON AIRPT PTCLDY      99  31   9  W8      29.83F HX 94
#ADAMS 3WNW     N/A         99  30   9  N8      29.72F HX 94
#ATHENA         N/A         95  34  12  N1      29.76F HX 90
#CAYUSE         N/A         97  36  12  N7      29.70F HX 92
#HELIX SCHOOL   N/A         95  32  11  N6      29.74F HX 90
#HELIX 3N       N/A         94  29  10  NE3     29.84F HX 89
#HELIX 6SW      N/A         98  39  13  W3      29.83F HX 93
#HOLDMAN 6E     N/A         97  31  10  SE8     29.55F HX 92
#M-F GROVE ELEM N/A         97  36  12  CALM    29.80F HX 92
#M-FREEWATER 5SEN/A         97  48  19  NW2     29.81F HX 94
#PENDLETON DNTN N/A         103 45  14  N7      N/A    HX 99
#PDT AQUATIC CTRN/A         99  43  15  W7      29.80F HX 95
#PENDLETON 7NW  N/A         94  52  24  W2      31.96S HX 91
#PILOT ROCK     N/A         95  46  19  W5      29.86F HX 91
#TUTUILLA       N/A         100 38  12  W7      29.76F HX 95
#UMAPINE 2E     N/A         98  53  22  CALM    29.75F HX 96

$$

ORZ508-022310-
SOUTHERN FOOTHILLS OF THE BLUES

CITY            SKY/WX      TMP DP  RH  WIND    PRES   REMARKS
#AJAX           N/A         92  32  12  W5      29.83F HX 88
#CONDON SCHOOL  N/A         91  27  10  NW7     29.89F HX 87
#CONDON 5W      N/A         91  22   8  NW9     29.93F HX 87
#FOSSIL SCHOOL  N/A         92  19   7  N6      29.87F HX 88
#HEPPNER EOC    N/A         97  36  12  N5      29.67F HX 92
#HEPPNER 4NE    N/A         91  33  13  SW6     29.72F HX 87
#LEXINGTON 2SE  N/A         98  41  14  NW2     29.80F HX 93
#OLEX 4N        N/A         98  27   8  SW6     29.79F HX 93
#RUGGS 2SW      N/A         94  24   8  NW9     29.73F HX 89

$$

ORZ502-503-022310-
BLUE MOUNTAINS

CITY            SKY/WX      TMP DP  RH  WIND    PRES   REMARKS
MEACHAM         SUNNY       93  27   9  VRB3    29.99F HX 88
#LONG CREEK HS  N/A         84  24  11  CALM    29.90F
#PIKES PEAK     N/A         89  34  14  N5      27.99S
#TOLLGATE       N/A         83  31  15  S2      29.94F
#UKIAH          N/A         92  32  12  W10     29.79F HX 88
$$

ORZ505-022310-
JOHN DAY BASIN

CITY            SKY/WX      TMP DP  RH  WIND    PRES   REMARKS
JOHN DAY        MOCLDY      98  25   7  W14     29.92F HX 93
#JOHN DAY KJDY  N/A         98  95  91  W1      29.98F HX 165
#DAYVILLE SCHOOLN/A         102 26   7  NW7     29.83F HX 96
#MONUMENT HS    N/A         100 36  11  N2      29.82F HX 95
#MT. VERNON 5SE N/A         94  27   9  S5      29.91F HX 89
#WINLOCK        N/A         95  33  11  N2      30.00F HX 90
$$

ORZ506-022310-
OCHOCO AND JOHN DAY HIGHLANDS

CITY            SKY/WX      TMP DP  RH  WIND    PRES   REMARKS
#PINE MTN OBS   N/A         76  22  13  NW10    N/A
#SENECA         N/A         88  N/A N/A W12     N/A
#SENECA 9NW     N/A         95  34  12  E1      29.68F HX 90
$$

ORZ049-022310-
GRANDE RONDE VALLEY

CITY            SKY/WX      TMP DP  RH  WIND    PRES   REMARKS
LA GRANDE       SUNNY       100 36  11  N10     29.86F HX 95
#COVE           N/A         98  49  19  W3      29.89F HX 95
#COVE SCHOOL    N/A         100 34  10  W3      29.90F HX 95
#ELGIN 3N       N/A         99  50  19  S3      29.85F HX 96
#ELGIN 1E       N/A         100 38  12  CALM    N/A    HX 95
#ISLAND CITY 4N N/A         79  61  54  CALM    29.88F
#UNION 1S       N/A         99  35  11  N7      29.62F HX 94
$$

ORZ050-022310-
WALLOWA COUNTY

CITY            SKY/WX      TMP DP  RH  WIND    PRES   REMARKS
JOSEPH AIRPORT  SUNNY       95  21   7  NW6     29.99F HX 90
#IMNAHA SCHOOL  N/A         103  7   3  N8      29.79F HX 96
#IMNAHA 10S     N/A         101 26   7  NE3     29.87F HX 95
#JOSEPH 3N      N/A         92  32  12  E5      29.99F HX 88
#JOSEPH 3W      N/A         92  32  12  NE1     29.87F HX 88
#PROMISE 1S     N/A         93  38  15  SW12    29.83F HX 89



$$



USA.gov is the U.S. government's official web portal to all federal, state and local government web resources and services.